map of PMV home
Great Circle Mapper logo
PMV - Airport
Location
City:  Porlamar, Isla Margarita, Venezuela
Name:Del Caribe "General Santiago Mariņo" International Airport
ICAO / IATA:SVMG / PMV

Details
Type:Airport (Aerodrome, Airfield)
Use:Public/Civil, International (customs port of entry)
Latitude:10°54'47"N (10.912926)
Longitude:63°58'03"W (-63.967580)
Datum:other
Elevation:74 ft (23 m)
Variation:13.65°W (WMM2015 magnetic declination)
-0.07° annual change
Runways:2
Longest:10499 × 150 ft (3200 × 45.5 m), paved

Time
Time Zone:UTC-4:30
Local Time:

Weather
METAR:SVMG 231500Z /////KT 9999 FEW010 31/26 Q1016 NOSIG
TAF:SVMG 231600Z 2318/2418 09016KT 9999 SCT010 TX33/18Z TN25/08Z
BECMG 2321/2400 FEW010 SCT080
FM240620 08008KT 9999 FEW010

Related Locations
Nearby:
Farthest:LOP: 12281 mi / 19764 km
Praya [Lombok Intl], Lombok Island, NB, ID

Find:

   beyond  
but within

Other Information
Maps:
NOTAMs:
Links:
Sources:

  
flag of Venezuela   

Sectional Chart

Flight Planning
at skyvector.com

Satellite Image

Google Maps Satellite View

 

Copyright © 2004-2015 Karl L. Swartz. All rights reserved.
The Great Circle Mapper name and logo are trademarks of the Great Circle Mapper.
All other trademarks mentioned herein belong to their respective owners.
Please see credits for attibutions and further copyright information.

  Follow gcmap on Facebook Follow gcmap on Twitter Follow gcmap on Google+

hCard Microformat

Geo Microformat